Meteo Giornale » Osservazioni meteo Svizzera » Ginevra-Cointrin

ore: 06:50 - Osservazioni Meteo Ginevra-Cointrin
Lat. 46° 15' N Lon. 6° 8' E Alt. 420 metri s.l.m.

sereno Europe/Zurich

12 °C

Sereno

Temp. 24 Ore

12 °C

21 °C

Nord

1.8 Km/h

Dew point 12 °C

Umidità 100 %

Visibilità  10 Km

Il sole sorge alle ore 06:44

Il sole tramonta alle ore 20:31

Data e Ora Cielo e Fenomeni T °C DP °C Um. % Pres. hPa Vis. km Vento km/h
Oggi h: 06:50 sereno Sereno 12 12 100 1022 10 N 1.8
Oggi h: 06:20 sereno Sereno 12 12 100 1022 10 N 1.8
Oggi h: 05:50 sereno Sereno 13 12 93 1022 10 N 3.7
Oggi h: 05:20 sereno Sereno 13 13 100 1022 10 N 3.7
Oggi h: 04:50 sereno Sereno 13 12 93 1022 10 N 5.5
Oggi h: 04:20 sereno Sereno 13 12 93 1022 10 N 3.7
Oggi h: 03:50 sereno Sereno 13 12 93 1022 10 N 3.7
Oggi h: 03:20 sereno Sereno 13 12 93 1022 10 N 3.7
Oggi h: 02:50 sereno Sereno 14 13 93 1022 10 N 3.7
Oggi h: 02:20 sereno Sereno 14 13 93 1022 10 N 3.7
Oggi h: 01:50 sereno Sereno 14 13 93 1022 10 N 3.7
Oggi h: 01:20 sereno Sereno 14 13 93 1022 10 N 3.7
Oggi h: 00:50 sereno Sereno 14 14 100 1022 10 N 3.7
Oggi h: 00:20 sereno Sereno 15 14 93 1022 10 N 1.8
Ieri h: 23:50 sereno Sereno 15 14 93 1022 10 N 1.8
Ieri h: 23:20 sereno Sereno 16 15 93 1022 10 N 3.7
Ieri h: 22:50 sereno Sereno 16 15 93 1022 10 N 1.8
Ieri h: 22:20 sereno Sereno 16 15 93 1022 10 N 3.7
Ieri h: 21:50 sereno Sereno 17 15 88 1023 10 N 1.8
Ieri h: 21:20 poco_nuvoloso Poco Nuvoloso 17 15 88 1023 10 N 1.8
Ieri h: 20:50 poco_nuvoloso Poco Nuvoloso 19 15 77 1022 10 N 3.7
Ieri h: 20:20 poco_nuvoloso Poco Nuvoloso 20 15 72 1022 10 N 5.5
Ieri h: 19:50 poco_nuvoloso Poco Nuvoloso 21 15 68 1022 10 N/NE 7.4
Ieri h: 19:20 poco_nuvoloso Poco Nuvoloso 21 14 64 1022 10 N 7.4
Ieri h: 18:50 poco_nuvoloso Poco Nuvoloso 21 14 64 1022 10 NE 11.1
Ieri h: 18:20 poco_nuvoloso Poco Nuvoloso 21 14 64 1022 10 NE 13
Ieri h: 17:50 poco_nuvoloso Poco Nuvoloso 21 14 64 1022 10 NE 13
Ieri h: 17:20 poco_nuvoloso Poco Nuvoloso 21 15 68 1023 10 NE 13
Ieri h: 16:50 nuvoloso Nuvoloso 21 15 68 1023 10 NE 9.3
Ieri h: 16:20 molto_nuvoloso Molto Nuvoloso 21 14 64 1023 10 NE 13
Ieri h: 15:50 molto_nuvoloso Molto Nuvoloso 21 15 68 1023 10 NE 14.8
Ieri h: 15:20 molto_nuvoloso Molto Nuvoloso 20 14 68 1023 10 NE 11.1
Ieri h: 14:50 coperto Coperto 20 15 72 1023 10 NE 14.8
Ieri h: 14:20 coperto Coperto 20 15 72 1023 10 E/NE 14.8
Ieri h: 13:50 coperto Coperto 20 14 68 1024 10 E/NE 16.7
Ieri h: 13:20 coperto Coperto 19 14 72 1024 10 NE 16.7
Ieri h: 12:50 coperto Coperto 19 14 72 1024 10 NE 22.2
Ieri h: 12:20 coperto Coperto 19 14 72 1024 10 NE 18.5
Ieri h: 11:50 coperto Coperto 18 14 77 1024 10 E/NE 18.5
Ieri h: 11:20 coperto Coperto 18 14 77 1024 10 E/NE 18.5
Ieri h: 10:50 coperto Coperto 18 14 77 1024 10 NE 14.8
Ieri h: 10:20 coperto Coperto 18 14 77 1024 10 NE 14.8
Ieri h: 09:50 coperto Coperto 18 14 77 1024 10 NE 16.7
Ieri h: 09:20 coperto Coperto 18 14 77 1024 10 N/NE 11.1
Ieri h: 08:50 coperto Coperto 17 14 82 1024 10 N 3.7
Ieri h: 08:20 coperto Coperto 16 14 87 1024 10 N 3.7
Ieri h: 07:50 coperto Coperto 16 13 82 1024 10 N 0